Погода в Рахимъярхане

Пакистан     28°25′06″N   70°18′38″E
темп.,
°C
ветер,
м/с
пор.,
м/с
влажн.,
%
обл.,
%
осадки,
мм/ч
давл.,
гПа
погр.,
м
13 мая, чт
чт1323:00+35зюз22110 0.0 99515
02:00+34ююз3490 0.0 99558
05:00+30ю36410 0.0 996121
08:00+33ю11290 0.0 998453
11:00+38юв22160 0.0 9981298
14:00+42юв24100 0.0 9964036
17:00+42юв3270 0.0 9944656
20:00+39вюв3490 0.0 99552
14 мая, пт
пт1423:00+36ссв46160 0.0 997143
02:00+31ссв812340 0.0 997383
05:00+28ссв711400 0.0 998343
08:00+32св78340 0.0 1000546
11:00+38св55200 0.0 9991268
14:00+42в44130 0.0 9972693
17:00+42вюв55110 0.0 9953834
20:00+38вюв46150 0.0 997125
15 мая, сб
сб1523:00+36в34170 0.0 99753
02:00+33св711250 0.0 998414
05:00+30св57380 0.0 999224
08:00+32св54330 0.0 1001677
11:00+39св54190 0.0 10011415
14:00+42юв42130 0.0 9983853
17:00+42юв43132 0.0 9964119
20:00+39юв33140 0.0 99848
16 мая, вс
вс1623:00+34св10142634 0.0 1001786
02:00+31ссв71334100 0.0 1000520
05:00+30с59354 0.0 1002315
08:00+34ссв911266 0.0 1004902
11:00+39всв991873 0.0 10031829
14:00+42всв641264 0.0 10003774
17:00+42вюв3310100 0.0 9984072
20:00+39ссз331229 0.0 100026
17 мая, пн
пн1723:00+36с51222100 0.0 1001322
02:00+35ссв7152433 0.0 1001623
05:00+33св8162614 0.0 1001563
08:00+36св10112269 0.0 1003827
11:00+41всв6515100 0.0 10022179
14:00+43вюв74147 0.0 10004207
17:00+42юв851867 0.0 9983537
20:00+36ююв7102879 0.0 1001718